This demonstration page uses our WeatherBlox Daily Observations layout. Learn more.

Left ArrowRight Arrow

41.55636, -103.73856

Hourly Observations for January 10, 2021

Temp ( °F °C ) Dew Point ( °F °C ) Humidity (%) Winds ( mph kmh ) Pressure ( in mb ) Visibility ( mi km ) Precip ( " mm )
12:56 am 00:56 Cloudy with Light Snow 26 -3.3 24 -4.2 94 94 Calm 30.44 1031 4 6.43736 0 0
1:56 am 01:56 Cloudy with Light Snow 27 -2.9 25 -3.9 93 93 Calm 30.44 1031 7 11.26538 0 0
2:56 am 02:56 Cloudy with Light Snow Showers 27 -2.9 25 -3.7 94 94 Calm 30.44 1031 10 16.0934 0 0
3:56 am 03:56 Mostly Cloudy 25 -3.8 24 -4.3 96 96 WSW 3 6 30.42 1030 10 16.0934 0 0
4:56 am 04:56 Mostly Cloudy 26 -3.5 25 -4.1 96 96 Calm 30.42 1030 10 16.0934 0 0
5:56 am 05:56 Mostly Cloudy 27 -2.8 24 -4.3 90 90 Calm 30.43 1030 10 16.0934 0 0
6:56 am 06:56 Cloudy 27 -3 24 -4.2 92 92 SW 3 6 30.43 1030 10 16.0934 0 0
7:56 am 07:56 Cloudy 27 -2.8 24 -4.4 89 89 SW 5 7 30.45 1031 10 16.0934 0 0
8:56 am 08:56 Mostly Sunny 29 -1.9 23 -4.8 81 81 W 3 6 30.45 1031 10 16.0934 0 0
9:56 am 09:56 Sunny 32 -0.1 22 -5.5 67 67 SW 6 9 30.44 1031 10 16.0934 0 0
10:56 am 10:56 Sunny 35 1.4 21 -6.2 57 57 WSW 10 17 30.4 1030 10 16.0934 0 0
11:56 am 11:56 Sunny 36 2.4 21 -6.1 54 54 WSW 10 17 30.35 1028 10 16.0934 0 0
12:56 pm 12:56 Sunny 37 3 19 -7.5 46 46 W 12 19 30.31 1026 10 16.0934 0 0
1:56 pm 13:56 Sunny 39 3.9 19 -7.2 45 45 WSW 10 17 30.28 1025 10 16.0934 0 0
2:56 pm 14:56 Sunny 39 3.9 19 -7.2 45 45 SW 8 13 30.28 1025 10 16.0934 0 0
3:56 pm 15:56 Sunny 37 3 19 -7.1 48 48 SSW 10 17 30.29 1026 10 16.0934 0 0
4:56 pm 16:56 Clear 30 -1 19 -7.4 62 62 SSW 12 19 30.32 1027 10 16.0934 0 0
5:56 pm 17:56 Clear 27 -2.7 20 -6.7 74 74 SW 15 24 30.32 1027 10 16.0934 0 0
6:56 pm 18:56 Clear 26 -3.3 20 -6.5 79 79 WSW 12 19 30.34 1027 10 16.0934 0 0
7:56 pm 19:56 Clear 21 -6.2 17 -8.6 83 83 SW 7 11 30.35 1028 10 16.0934 0 0
8:56 pm 20:56 Clear 20 -6.4 13 -10.4 74 74 SW 9 15 30.35 1028 10 16.0934 0 0
9:56 pm 21:56 Clear 22 -5.6 12 -11.1 66 66 SW 5 7 30.35 1028 10 16.0934 0 0
10:56 pm 22:56 Clear 20 -6.5 10 -12.3 64 64 Calm 30.32 1027 10 16.0934 0 0
11:56 pm 23:56 Clear 21 -6.2 11 -11.9 64 64 SW 10 17 30.3 1026 10 16.0934 0 0

Powered by AerisWeather